| time (UTC) | temp F | wind direction | speed MPH | gust MPH | rain 1hr in | rain 24hr in | rain mn in | humidity % | barometer mb |
| 20260906113509 | 59 | 22 | 8.0 | 10.0 | 0.00 | 0.00 | 0.00 | 84 | 1019.9 |
| 20260906113004 | 59 | 65 | 8.0 | 10.0 | 0.00 | 0.00 | 0.00 | 84 | 1019.8 |
| 20260906112458 | 59 | 28 | 7.0 | 9.0 | 0.00 | 0.00 | 0.00 | 83 | 1019.9 |
| 20260906111955 | 59 | 21 | 9.0 | 11.0 | 0.00 | 0.00 | 0.00 | 83 | 1020.1 |
| 20260906111449 | 59 | 32 | 7.0 | 9.0 | 0.00 | 0.00 | 0.00 | 83 | 1020.1 |
| 20260906110944 | 59 | 8 | 9.0 | 13.0 | 0.00 | 0.00 | 0.00 | 82 | 1020.1 |
| 20260906110439 | 59 | 16 | 6.0 | 7.0 | 0.00 | 0.00 | 0.00 | 82 | 1020.1 |
| 20260906105938 | 59 | 25 | 7.0 | 9.0 | 0.00 | 0.00 | 0.00 | 82 | 1020.2 |
| 20260906105434 | 59 | 320 | 3.0 | 5.0 | 0.00 | 0.00 | 0.00 | 83 | 1020.6 |
| 20260906104930 | 59 | 341 | 2.0 | 2.0 | 0.00 | 0.00 | 0.00 | 84 | 1020.3 |
| 20260906104428 | 59 | 328 | 1.0 | 2.0 | 0.00 | 0.00 | 0.00 | 83 | 1020.4 |
| 20260906103928 | 59 | 33 | 4.0 | 6.0 | 0.00 | 0.00 | 0.00 | 82 | 1020.6 |
| 20260906103426 | 59 | 50 | 9.0 | 14.0 | 0.00 | 0.00 | 0.00 | 81 | 1020.3 |
| 20260906102921 | 58 | 33 | 8.0 | 9.0 | 0.00 | 0.00 | 0.00 | 84 | 1020.4 |
| 20260906102421 | 58 | 1 | 3.0 | 3.0 | 0.00 | 0.00 | 0.00 | 86 | 1020.4 |
| 20260906101916 | 58 | 356 | 3.0 | 3.0 | 0.00 | 0.00 | 0.00 | 86 | 1020.6 |
| 20260906101411 | 58 | 20 | 5.0 | 6.0 | 0.00 | 0.00 | 0.00 | 86 | 1020.6 |
| 20260906100907 | 58 | 325 | 4.0 | 6.0 | 0.00 | 0.00 | 0.00 | 86 | 1020.6 |
| 20260906100406 | 58 | 10 | 7.0 | 8.0 | 0.00 | 0.00 | 0.00 | 85 | 1020.3 |
| 20260906095900 | 58 | 2 | 6.0 | 8.0 | 0.00 | 0.00 | 0.00 | 85 | 1020.3 |
| 20260906095356 | 58 | 10 | 3.0 | 3.0 | 0.00 | 0.00 | 0.00 | 85 | 1020.2 |
| 20260906094850 | 58 | 38 | 3.0 | 5.0 | 0.00 | 0.00 | 0.00 | 85 | 1020.3 |
| 20260906094345 | 58 | 318 | 3.0 | 3.0 | 0.00 | 0.00 | 0.00 | 85 | 1020.4 |
| 20260906093841 | 58 | 334 | 4.0 | 6.0 | 0.00 | 0.00 | 0.00 | 85 | 1020.6 |
| 20260906093337 | 58 | 8 | 3.0 | 5.0 | 0.00 | 0.00 | 0.00 | 86 | 1020.6 |
| 20260906092832 | 57 | 19 | 5.0 | 7.0 | 0.00 | 0.00 | 0.00 | 86 | 1020.2 |
| 20260906092331 | 57 | 18 | 3.0 | 6.0 | 0.00 | 0.00 | 0.00 | 87 | 1020.1 |
| 20260906091827 | 57 | 350 | 5.0 | 8.0 | 0.00 | 0.00 | 0.00 | 87 | 1020.1 |
| 20260906091323 | 57 | 19 | 5.0 | 6.0 | 0.00 | 0.00 | 0.00 | 87 | 1020.1 |
| 20260906090820 | 57 | 25 | 6.0 | 8.0 | 0.00 | 0.00 | 0.00 | 86 | 1020.2 |
| 20260906090318 | 57 | 4 | 9.0 | 10.0 | 0.00 | 0.00 | 0.00 | 87 | 1020.3 |
| 20260906085818 | 57 | 1 | 7.0 | 8.0 | 0.00 | 0.00 | 0.00 | 87 | 1020.3 |
| 20260906085311 | 57 | 348 | 5.0 | 6.0 | 0.00 | 0.00 | 0.00 | 87 | 1020.3 |
| 20260906084807 | 57 | 16 | 6.0 | 9.0 | 0.00 | 0.00 | 0.00 | 86 | 1020.3 |
| 20260906084306 | 57 | 355 | 6.0 | 7.0 | 0.00 | 0.00 | 0.00 | 87 | 1020.2 |
| 20260906083801 | 57 | 358 | 7.0 | 10.0 | 0.00 | 0.00 | 0.00 | 88 | 1020.6 |
| 20260906083257 | 57 | 337 | 3.0 | 5.0 | 0.00 | 0.00 | 0.00 | 88 | 1020.8 |
| 20260906082751 | 57 | 311 | 2.0 | 3.0 | 0.00 | 0.00 | 0.00 | 87 | 1020.8 |
| 20260906082246 | 57 | 32 | 6.0 | 10.0 | 0.00 | 0.00 | 0.00 | 86 | 1021.0 |
| 20260906081742 | 57 | 288 | 1.0 | 1.0 | 0.00 | 0.00 | 0.00 | 88 | 1021.3 |
| 20260906081237 | 57 | 32 | 2.0 | 2.0 | 0.00 | 0.00 | 0.00 | 89 | 1021.3 |
| 20260906080734 | 57 | 236 | 1.0 | 1.0 | 0.00 | 0.00 | 0.00 | 89 | 1021.5 |
| 20260906080230 | 57 | 265 | 0.0 | 0.0 | 0.00 | 0.00 | 0.00 | 89 | 1021.4 |
| 20260906075723 | 57 | 235 | 1.0 | 1.0 | 0.00 | 0.00 | 0.00 | 89 | 1021.5 |
| 20260906075218 | 57 | 304 | 1.0 | 2.0 | 0.00 | 0.00 | 0.00 | 89 | 1021.5 |
| 20260906074713 | 57 | 284 | 0.0 | 1.0 | 0.00 | 0.00 | 0.00 | 89 | 1021.5 |
| 20260906074212 | 57 | 295 | 1.0 | 1.0 | 0.00 | 0.00 | 0.00 | 88 | 1021.8 |
| 20260906073707 | 57 | 194 | 2.0 | 2.0 | 0.00 | 0.00 | 0.00 | 88 | 1021.7 |
| 20260906073203 | 57 | 296 | 1.0 | 2.0 | 0.00 | 0.00 | 0.00 | 87 | 1021.5 |
| 20260906072658 | 57 | 185 | 0.0 | 0.0 | 0.00 | 0.00 | 0.00 | 87 | 1021.5 |
| 20260906072154 | 57 | 217 | 1.0 | 1.0 | 0.00 | 0.00 | 0.00 | 86 | 1021.5 |
| 20260906071650 | 57 | 288 | 2.0 | 3.0 | 0.00 | 0.00 | 0.00 | 85 | 1021.4 |
| 20260906071149 | 57 | 341 | 3.0 | 5.0 | 0.00 | 0.00 | 0.00 | 85 | 1021.3 |
| 20260906070646 | 58 | 27 | 4.0 | 5.0 | 0.00 | 0.00 | 0.00 | 85 | 1021.7 |
| 20260906070141 | 57 | 355 | 3.0 | 6.0 | 0.00 | 0.00 | 0.00 | 84 | 1021.4 |
| 20260906065641 | 57 | 32 | 3.0 | 3.0 | 0.00 | 0.00 | 0.00 | 85 | 1021.5 |
| 20260906065136 | 57 | 3 | 3.0 | 5.0 | 0.00 | 0.00 | 0.00 | 85 | 1021.7 |
| 20260906064632 | 57 | 264 | 0.0 | 0.0 | 0.00 | 0.00 | 0.00 | 85 | 1021.7 |
| 20260906064127 | 57 | 9 | 2.0 | 3.0 | 0.00 | 0.00 | 0.00 | 85 | 1021.5 |
| 20260906063622 | 57 | 343 | 1.0 | 2.0 | 0.00 | 0.00 | 0.00 | 85 | 1021.8 |
| 20260906063118 | 57 | 341 | 2.0 | 2.0 | 0.00 | 0.00 | 0.00 | 85 | 1022.1 |
| 20260906062613 | 57 | 292 | 1.0 | 2.0 | 0.00 | 0.00 | 0.00 | 85 | 1022.0 |
| 20260906062112 | 57 | 267 | 0.0 | 1.0 | 0.00 | 0.00 | 0.00 | 86 | 1022.0 |
| 20260906061609 | 57 | 265 | 0.0 | 1.0 | 0.00 | 0.00 | 0.00 | 86 | 1022.0 |
| 20260906061108 | 58 | 11 | 7.0 | 9.0 | 0.00 | 0.00 | 0.00 | 85 | 1022.1 |
| 20260906060605 | 57 | 0 | 1.0 | 2.0 | 0.00 | 0.00 | 0.00 | 84 | 1021.8 |
| 20260906055557 | 58 | 8 | 7.0 | 11.0 | 0.00 | 0.31 | 0.31 | 82 | 1021.8 |
| 20260906055053 | 57 | 344 | 2.0 | 3.0 | 0.00 | 0.31 | 0.31 | 85 | 1021.8 |
| 20260906054553 | 57 | 261 | 2.0 | 3.0 | 0.00 | 0.31 | 0.31 | 87 | 1022.0 |
| 20260906054048 | 57 | 303 | 1.0 | 2.0 | 0.00 | 0.31 | 0.31 | 88 | 1022.2 |
| 20260906053544 | 57 | 347 | 2.0 | 5.0 | 0.00 | 0.31 | 0.31 | 89 | 1022.4 |
| 20260906053039 | 57 | 270 | 2.0 | 2.0 | 0.00 | 0.31 | 0.31 | 89 | 1022.4 |
| 20260906052535 | 56 | 294 | 0.0 | 1.0 | 0.00 | 0.31 | 0.31 | 89 | 1022.1 |
| 20260906052032 | 56 | 337 | 2.0 | 3.0 | 0.00 | 0.31 | 0.31 | 89 | 1021.8 |
| 20260906051527 | 56 | 247 | 0.0 | 0.0 | 0.00 | 0.31 | 0.31 | 89 | 1021.5 |
| 20260906051023 | 56 | 284 | 0.0 | 1.0 | 0.00 | 0.31 | 0.31 | 90 | 1021.4 |
| 20260906050518 | 56 | 325 | 2.0 | 3.0 | 0.00 | 0.31 | 0.31 | 91 | 1021.2 |
| 20260906050012 | 56 | 283 | 0.0 | 0.0 | 0.00 | 0.31 | 0.31 | 90 | 1021.4 |
| 20260906045510 | 56 | 3 | 1.0 | 2.0 | 0.00 | 0.31 | 0.31 | 90 | 1021.5 |
| 20260906045007 | 56 | 280 | 0.0 | 0.0 | 0.00 | 0.31 | 0.31 | 90 | 1021.3 |
| 20260906044502 | 56 | 334 | 2.0 | 2.0 | 0.00 | 0.31 | 0.31 | 91 | 1021.4 |
| 20260906043957 | 56 | 257 | 0.0 | 1.0 | 0.00 | 0.31 | 0.31 | 91 | 1021.4 |
| 20260906043453 | 57 | 264 | 0.0 | 0.0 | 0.05 | 0.31 | 0.31 | 90 | 1021.7 |
| 20260906042949 | 57 | 255 | 0.0 | 0.0 | 0.05 | 0.31 | 0.31 | 89 | 1021.7 |
| 20260906042448 | 57 | 267 | 0.0 | 0.0 | 0.00 | 0.30 | 0.30 | 89 | 1021.7 |
| 20260906041948 | 57 | 305 | 0.0 | 1.0 | 0.00 | 0.30 | 0.30 | 88 | 1021.2 |
| 20260906041444 | 57 | 296 | 0.0 | 0.0 | 0.00 | 0.30 | 0.30 | 88 | 1021.5 |
| 20260906040943 | 57 | 280 | 1.0 | 1.0 | 0.00 | 0.30 | 0.30 | 87 | 1021.4 |
| 20260906040438 | 57 | 348 | 5.0 | 7.0 | 0.00 | 0.30 | 0.30 | 87 | 1020.7 |
| 20260906035934 | 57 | 25 | 5.0 | 7.0 | 0.00 | 0.30 | 0.30 | 88 | 1020.6 |
| 20260906035429 | 57 | 14 | 6.0 | 8.0 | 0.00 | 0.30 | 0.30 | 88 | 1020.6 |
| 20260906034924 | 57 | 2 | 5.0 | 7.0 | 0.00 | 0.30 | 0.30 | 89 | 1020.3 |
| 20260906034419 | 57 | 0 | 4.0 | 5.0 | 0.00 | 0.30 | 0.30 | 88 | 1020.1 |
| 20260906033915 | 57 | 13 | 6.0 | 7.0 | 0.00 | 0.30 | 0.30 | 88 | 1020.4 |
| 20260906033415 | 57 | 2 | 7.0 | 10.0 | 0.00 | 0.30 | 0.30 | 89 | 1020.3 |
| 20260906032910 | 57 | 13 | 6.0 | 7.0 | 0.00 | 0.30 | 0.30 | 89 | 1020.6 |
| 20260906032407 | 57 | 22 | 6.0 | 7.0 | 0.00 | 0.30 | 0.30 | 89 | 1020.4 |
| 20260906031901 | 58 | 7 | 3.0 | 3.0 | 0.00 | 0.30 | 0.30 | 89 | 1020.6 |
| 20260906031356 | 58 | 12 | 6.0 | 8.0 | 0.00 | 0.30 | 0.30 | 88 | 1020.9 |
| 20260906030851 | 58 | 19 | 4.0 | 5.0 | 0.07 | 0.30 | 0.30 | 89 | 1020.8 |
| 20260906030346 | 58 | 5 | 3.0 | 3.0 | 0.61 | 0.30 | 0.30 | 87 | 1020.9 |
| 20260906025841 | 59 | 352 | 2.0 | 2.0 | 1.18 | 0.29 | 0.29 | 84 | 1020.9 |
| 20260906025335 | 62 | 22 | 7.0 | 9.0 | 0.64 | 0.20 | 0.20 | 77 | 1020.7 |
| 20260906024834 | 63 | 245 | 1.0 | 1.0 | 0.00 | 0.09 | 0.09 | 69 | 1022.0 |
| 20260906024333 | 62 | 231 | 3.0 | 5.0 | 0.00 | 0.09 | 0.09 | 70 | 1021.8 |
| 20260906023829 | 62 | 265 | 1.0 | 1.0 | 0.00 | 0.09 | 0.09 | 69 | 1020.4 |
| 20260906023325 | 62 | 353 | 2.0 | 3.0 | 0.00 | 0.09 | 0.09 | 68 | 1019.6 |
| 20260906022820 | 62 | 0 | 5.0 | 6.0 | 0.00 | 0.09 | 0.09 | 68 | 1019.1 |
| 20260906022315 | 62 | 357 | 5.0 | 6.0 | 0.00 | 0.09 | 0.09 | 68 | 1018.8 |
| 20260906021811 | 63 | 359 | 4.0 | 5.0 | 0.00 | 0.09 | 0.09 | 68 | 1019.1 |
| 20260906021310 | 62 | 12 | 6.0 | 7.0 | 0.00 | 0.09 | 0.09 | 68 | 1018.9 |
| 20260906020804 | 62 | 351 | 5.0 | 7.0 | 0.00 | 0.09 | 0.09 | 69 | 1019.0 |
| 20260906020259 | 62 | 11 | 3.0 | 3.0 | 0.00 | 0.09 | 0.09 | 69 | 1019.1 |
| 20260906015759 | 62 | 7 | 6.0 | 7.0 | 0.00 | 0.09 | 0.09 | 68 | 1019.1 |
| 20260906015257 | 63 | 9 | 5.0 | 7.0 | 0.00 | 0.09 | 0.09 | 68 | 1019.2 |
| 20260906014752 | 63 | 8 | 4.0 | 5.0 | 0.00 | 0.09 | 0.09 | 67 | 1019.1 |
| 20260906014248 | 64 | 13 | 5.0 | 6.0 | 0.00 | 0.09 | 0.09 | 66 | 1019.2 |
| 20260906013743 | 64 | 12 | 4.0 | 5.0 | 0.00 | 0.09 | 0.09 | 64 | 1019.1 |
| 20260906013243 | 64 | 9 | 7.0 | 9.0 | 0.00 | 0.09 | 0.09 | 64 | 1018.9 |
| 20260906012739 | 64 | 14 | 7.0 | 9.0 | 0.00 | 0.09 | 0.09 | 64 | 1019.4 |
| 20260906012234 | 64 | 4 | 3.0 | 3.0 | 0.00 | 0.09 | 0.09 | 63 | 1019.2 |
| 20260906011729 | 65 | 5 | 5.0 | 6.0 | 0.00 | 0.09 | 0.09 | 62 | 1019.5 |
| 20260906011228 | 65 | 21 | 4.0 | 5.0 | 0.00 | 0.09 | 0.09 | 61 | 1019.2 |
| 20260906010724 | 66 | 358 | 6.0 | 7.0 | 0.00 | 0.09 | 0.09 | 61 | 1019.1 |
| 20260906010221 | 66 | 348 | 4.0 | 5.0 | 0.00 | 0.09 | 0.09 | 60 | 1019.4 |
| 20260906005721 | 67 | 9 | 5.0 | 6.0 | 0.00 | 0.09 | 0.09 | 59 | 1019.1 |
| 20260906005214 | 67 | 350 | 8.0 | 9.0 | 0.00 | 0.09 | 0.09 | 58 | 1019.1 |
| 20260906004713 | 67 | 2 | 7.0 | 8.0 | 0.00 | 0.09 | 0.09 | 58 | 1019.4 |
| 20260906004209 | 67 | 15 | 5.0 | 5.0 | 0.00 | 0.09 | 0.09 | 57 | 1019.2 |
| 20260906003704 | 67 | 19 | 10.0 | 11.0 | 0.00 | 0.09 | 0.09 | 57 | 1019.1 |
| 20260906003200 | 67 | 16 | 5.0 | 7.0 | 0.00 | 0.09 | 0.09 | 57 | 1019.0 |
| 20260906002659 | 68 | 11 | 7.0 | 9.0 | 0.00 | 0.09 | 0.09 | 56 | 1019.0 |
| 20260906002154 | 68 | 4 | 4.0 | 6.0 | 0.00 | 0.09 | 0.09 | 56 | 1019.4 |
| 20260906001650 | 69 | 27 | 1.0 | 3.0 | 0.00 | 0.09 | 0.09 | 56 | 1019.2 |
| 20260906001149 | 70 | 348 | 1.0 | 2.0 | 0.00 | 0.09 | 0.09 | 54 | 1019.4 |
| 20260906000645 | 71 | 8 | 3.0 | 5.0 | 0.00 | 0.09 | 0.09 | 52 | 1019.5 |
| 20260906000140 | 73 | 274 | 1.0 | 2.0 | 0.00 | 0.09 | 0.09 | 52 | 1019.4 |
| 20260905235639 | 72 | 15 | 8.0 | 11.0 | 0.00 | 0.09 | 0.09 | 51 | 1019.4 |
| 20260905235135 | 71 | 15 | 8.0 | 9.0 | 0.00 | 0.09 | 0.09 | 50 | 1019.4 |
| 20260905234630 | 71 | 6 | 6.0 | 8.0 | 0.00 | 0.09 | 0.09 | 51 | 1019.4 |
| 20260905234126 | 72 | 20 | 9.0 | 13.0 | 0.00 | 0.09 | 0.09 | 49 | 1019.2 |
| 20260905233620 | 74 | 343 | 8.0 | 10.0 | 0.00 | 0.09 | 0.09 | 45 | 1019.5 |
| 20260905233114 | 73 | 22 | 3.0 | 3.0 | 0.00 | 0.09 | 0.09 | 45 | 1019.4 |
| 20260905232610 | 74 | 337 | 6.0 | 7.0 | 0.00 | 0.09 | 0.09 | 44 | 1019.6 |
| 20260905232105 | 74 | 352 | 2.0 | 2.0 | 0.00 | 0.09 | 0.09 | 46 | 1019.5 |
| 20260905231600 | 74 | 326 | 2.0 | 3.0 | 0.00 | 0.09 | 0.09 | 46 | 1019.6 |
| 20260905231057 | 73 | 25 | 2.0 | 2.0 | 0.00 | 0.09 | 0.09 | 46 | 1019.5 |
| 20260905230556 | 73 | 256 | 1.0 | 1.0 | 0.00 | 0.09 | 0.09 | 46 | 1019.5 |
| 20260905230055 | 73 | 255 | 1.0 | 1.0 | 0.00 | 0.09 | 0.09 | 46 | 1019.7 |
| 20260905225555 | 73 | 98 | 0.0 | 0.0 | 0.00 | 0.09 | 0.09 | 46 | 1019.7 |
| 20260905225050 | 73 | 258 | 1.0 | 1.0 | 0.00 | 0.09 | 0.09 | 47 | 1019.7 |
| 20260905224549 | 73 | 265 | 1.0 | 1.0 | 0.00 | 0.09 | 0.09 | 46 | 1019.8 |
| 20260905224049 | 73 | 3 | 3.0 | 3.0 | 0.00 | 0.09 | 0.09 | 45 | 1019.5 |
| 20260905223547 | 73 | 17 | 4.0 | 5.0 | 0.00 | 0.09 | 0.09 | 45 | 1019.5 |
| 20260905223042 | 73 | 14 | 2.0 | 5.0 | 0.00 | 0.09 | 0.09 | 45 | 1019.7 |
| 20260905222543 | 73 | 355 | 3.0 | 5.0 | 0.00 | 0.09 | 0.09 | 44 | 1019.6 |
| 20260905222038 | 73 | 11 | 1.0 | 5.0 | 0.00 | 0.09 | 0.09 | 45 | 1019.6 |
| 20260905221534 | 73 | 261 | 1.0 | 2.0 | 0.00 | 0.09 | 0.09 | 45 | 1019.7 |
| 20260905221030 | 73 | 327 | 2.0 | 3.0 | 0.00 | 0.09 | 0.09 | 45 | 1019.7 |
| 20260905220526 | 72 | 11 | 3.0 | 3.0 | 0.00 | 0.09 | 0.09 | 46 | 1019.8 |
| 20260905220022 | 74 | 7 | 2.0 | 6.0 | 0.00 | 0.09 | 0.09 | 44 | 1019.9 |
| 20260905215521 | 73 | 265 | 2.0 | 3.0 | 0.00 | 0.09 | 0.09 | 46 | 1019.9 |
| 20260905215017 | 73 | 19 | 4.0 | 7.0 | 0.00 | 0.09 | 0.09 | 45 | 1019.9 |
| 20260905214513 | 73 | 242 | 0.0 | 1.0 | 0.00 | 0.09 | 0.09 | 45 | 1020.0 |
| 20260905214008 | 73 | 255 | 2.0 | 2.0 | 0.00 | 0.09 | 0.09 | 45 | 1020.0 |
| 20260905213503 | 74 | 299 | 2.0 | 2.0 | 0.00 | 0.09 | 0.09 | 44 | 1020.1 |
| 20260905212958 | 73 | 144 | 1.0 | 1.0 | 0.00 | 0.09 | 0.09 | 46 | 1020.0 |
| 20260905212453 | 72 | 328 | 3.0 | 3.0 | 0.00 | 0.09 | 0.09 | 48 | 1020.0 |
| 20260905211952 | 71 | 288 | 2.0 | 2.0 | 0.00 | 0.09 | 0.09 | 47 | 1020.0 |
| 20260905211448 | 72 | 1 | 6.0 | 8.0 | 0.00 | 0.09 | 0.09 | 46 | 1020.0 |
| 20260905210943 | 72 | 272 | 1.0 | 1.0 | 0.00 | 0.09 | 0.09 | 48 | 1020.2 |
| 20260905210439 | 73 | 11 | 3.0 | 6.0 | 0.00 | 0.09 | 0.09 | 43 | 1020.0 |
| 20260905205938 | 72 | 286 | 2.0 | 2.0 | 0.00 | 0.09 | 0.09 | 43 | 1020.1 |
| 20260905205433 | 71 | 32 | 3.0 | 3.0 | 0.00 | 0.09 | 0.09 | 44 | 1020.2 |
| 20260905204932 | 71 | 347 | 2.0 | 2.0 | 0.00 | 0.09 | 0.09 | 45 | 1020.2 |
| 20260905204428 | 71 | 51 | 1.0 | 2.0 | 0.00 | 0.09 | 0.09 | 47 | 1020.3 |
| 20260905203927 | 71 | 351 | 2.0 | 2.0 | 0.00 | 0.09 | 0.09 | 45 | 1020.3 |
| 20260905203422 | 70 | 169 | 1.0 | 2.0 | 0.00 | 0.09 | 0.09 | 48 | 1020.4 |
| 20260905202918 | 71 | 26 | 5.0 | 6.0 | 0.00 | 0.09 | 0.09 | 47 | 1020.6 |
| 20260905202413 | 71 | 32 | 6.0 | 7.0 | 0.00 | 0.09 | 0.09 | 46 | 1020.6 |
| 20260905201909 | 71 | 145 | 0.0 | 1.0 | 0.00 | 0.09 | 0.09 | 48 | 1020.4 |
| 20260905201404 | 71 | 195 | 0.0 | 0.0 | 0.00 | 0.09 | 0.09 | 49 | 1020.4 |
| 20260905200903 | 69 | 108 | 3.0 | 3.0 | 0.00 | 0.09 | 0.09 | 51 | 1020.6 |
| 20260905200359 | 69 | 75 | 3.0 | 5.0 | 0.00 | 0.09 | 0.09 | 52 | 1020.4 |
| 20260905195857 | 69 | 53 | 4.0 | 6.0 | 0.00 | 0.09 | 0.09 | 51 | 1020.6 |
| 20260905195353 | 70 | 78 | 3.0 | 5.0 | 0.00 | 0.09 | 0.09 | 52 | 1020.4 |
| 20260905194848 | 68 | 156 | 1.0 | 3.0 | 0.00 | 0.09 | 0.09 | 55 | 1020.6 |
| 20260905194348 | 68 | 156 | 4.0 | 5.0 | 0.00 | 0.09 | 0.09 | 55 | 1020.6 |
| 20260905193848 | 70 | 179 | 1.0 | 2.0 | 0.00 | 0.09 | 0.09 | 56 | 1020.6 |
| 20260905193342 | 69 | 137 | 4.0 | 6.0 | 0.00 | 0.09 | 0.09 | 55 | 1020.6 |
| 20260905192838 | 68 | 273 | 1.0 | 1.0 | 0.00 | 0.09 | 0.09 | 53 | 1020.7 |
| 20260905192334 | 69 | 295 | 1.0 | 1.0 | 0.00 | 0.09 | 0.09 | 53 | 1020.8 |
| 20260905191833 | 68 | 233 | 0.0 | 0.0 | 0.00 | 0.09 | 0.09 | 56 | 1020.9 |
| 20260905191332 | 68 | 247 | 2.0 | 3.0 | 0.00 | 0.09 | 0.09 | 56 | 1021.0 |
| 20260905190830 | 67 | 241 | 0.0 | 1.0 | 0.00 | 0.09 | 0.09 | 59 | 1020.8 |
| 20260905190324 | 66 | 228 | 3.0 | 3.0 | 0.00 | 0.09 | 0.09 | 58 | 1021.0 |
| 20260905185818 | 66 | 244 | 1.0 | 1.0 | 0.00 | 0.09 | 0.09 | 59 | 1020.9 |
| 20260905185313 | 67 | 227 | 5.0 | 6.0 | 0.00 | 0.09 | 0.09 | 59 | 1021.1 |
| 20260905184812 | 67 | 260 | 1.0 | 2.0 | 0.00 | 0.09 | 0.09 | 59 | 1021.1 |
| 20260905184312 | 66 | 16 | 1.0 | 1.0 | 0.00 | 0.09 | 0.09 | 60 | 1021.2 |
| 20260905183810 | 66 | 16 | 3.0 | 3.0 | 0.00 | 0.09 | 0.09 | 60 | 1021.2 |
| 20260905183306 | 66 | 254 | 2.0 | 3.0 | 0.00 | 0.09 | 0.09 | 60 | 1021.4 |
| 20260905182800 | 66 | 328 | 2.0 | 2.0 | 0.00 | 0.09 | 0.09 | 61 | 1021.4 |
| 20260905182259 | 66 | 227 | 1.0 | 2.0 | 0.00 | 0.09 | 0.09 | 60 | 1021.4 |
| 20260905181754 | 66 | 236 | 0.0 | 0.0 | 0.00 | 0.09 | 0.09 | 65 | 1021.5 |
| 20260905181249 | 66 | 229 | 2.0 | 3.0 | 0.00 | 0.09 | 0.09 | 60 | 1021.5 |
| 20260905180749 | 65 | 208 | 1.0 | 1.0 | 0.00 | 0.09 | 0.09 | 64 | 1021.5 |
| 20260905180243 | 64 | 212 | 1.0 | 2.0 | 0.00 | 0.09 | 0.09 | 62 | 1021.7 |
| 20260905175738 | 64 | 219 | 3.0 | 5.0 | 0.00 | 0.09 | 0.09 | 63 | 1021.5 |
| 20260905175233 | 64 | 180 | 2.0 | 2.0 | 0.00 | 0.09 | 0.09 | 66 | 1021.4 |
| 20260905174728 | 64 | 83 | 3.0 | 3.0 | 0.00 | 0.09 | 0.09 | 64 | 1021.5 |
| 20260905174224 | 63 | 176 | 1.0 | 2.0 | 0.00 | 0.09 | 0.09 | 66 | 1021.7 |
| 20260905173720 | 63 | 236 | 1.0 | 2.0 | 0.00 | 0.09 | 0.09 | 67 | 1021.7 |
| 20260905173215 | 62 | 231 | 2.0 | 2.0 | 0.00 | 0.09 | 0.09 | 69 | 1021.8 |
| 20260905172715 | 62 | 215 | 1.0 | 1.0 | 0.00 | 0.09 | 0.09 | 68 | 1021.7 |
| 20260905172215 | 61 | 194 | 2.0 | 2.0 | 0.00 | 0.09 | 0.09 | 70 | 1021.8 |
| 20260905171711 | 61 | 210 | 3.0 | 3.0 | 0.00 | 0.09 | 0.09 | 69 | 1021.7 |
| 20260905171206 | 61 | 231 | 1.0 | 2.0 | 0.00 | 0.09 | 0.09 | 75 | 1021.7 |
| 20260905170703 | 61 | 238 | 2.0 | 2.0 | 0.00 | 0.09 | 0.09 | 70 | 1021.8 |
| 20260905170158 | 61 | 207 | 0.0 | 0.0 | 0.00 | 0.09 | 0.09 | 73 | 1021.5 |
| 20260905165658 | 60 | 213 | 2.0 | 2.0 | 0.00 | 0.09 | 0.09 | 73 | 1021.8 |
| 20260905165153 | 60 | 202 | 3.0 | 3.0 | 0.00 | 0.09 | 0.09 | 75 | 1021.5 |
| 20260905164648 | 60 | 220 | 2.0 | 3.0 | 0.00 | 0.09 | 0.09 | 74 | 1021.7 |
| 20260905164147 | 60 | 214 | 1.0 | 1.0 | 0.00 | 0.09 | 0.09 | 76 | 1021.8 |
| 20260905163643 | 60 | 190 | 1.0 | 1.0 | 0.00 | 0.09 | 0.09 | 75 | 1021.5 |
| 20260905163139 | 60 | 162 | 0.0 | 0.0 | 0.00 | 0.09 | 0.09 | 75 | 1021.8 |
| 20260905162635 | 60 | 4 | 1.0 | 1.0 | 0.00 | 0.09 | 0.09 | 78 | 1021.9 |
| 20260905162134 | 59 | 321 | 0.0 | 0.0 | 0.00 | 0.09 | 0.09 | 80 | 1021.7 |
| 20260905161629 | 59 | 272 | 0.0 | 0.0 | 0.00 | 0.09 | 0.09 | 80 | 1021.3 |
| 20260905161127 | 59 | 258 | 0.0 | 0.0 | 0.00 | 0.09 | 0.09 | 81 | 1021.4 |
| 20260905160626 | 59 | 234 | 0.0 | 0.0 | 0.00 | 0.09 | 0.09 | 85 | 1021.4 |
| 20260905160121 | 57 | 256 | 0.0 | 1.0 | 0.00 | 0.09 | 0.09 | 87 | 1021.7 |
| 20260905155620 | 58 | 3 | 2.0 | 2.0 | 0.00 | 0.09 | 0.09 | 86 | 1021.3 |
| 20260905155119 | 56 | 218 | 2.0 | 2.0 | 0.00 | 0.09 | 0.09 | 89 | 1021.7 |
| 20260905154614 | 56 | 232 | 1.0 | 1.0 | 0.00 | 0.09 | 0.09 | 89 | 1021.8 |
| 20260905154110 | 56 | 234 | 3.0 | 3.0 | 0.00 | 0.09 | 0.09 | 89 | 1021.9 |
| 20260905153606 | 56 | 230 | 2.0 | 2.0 | 0.00 | 0.09 | 0.09 | 89 | 1021.7 |
| 20260905153100 | 56 | 215 | 0.0 | 0.0 | 0.00 | 0.09 | 0.09 | 89 | 1021.7 |
| 20260905152555 | 55 | 214 | 0.0 | 0.0 | 0.00 | 0.09 | 0.09 | 88 | 1021.7 |
| 20260905152050 | 55 | 218 | 0.0 | 0.0 | 0.00 | 0.09 | 0.09 | 88 | 1021.5 |
| 20260905151545 | 55 | 225 | 0.0 | 0.0 | 0.00 | 0.09 | 0.09 | 89 | 1021.4 |
| 20260905151040 | 55 | 225 | 2.0 | 2.0 | 0.00 | 0.09 | 0.09 | 88 | 1021.8 |
| 20260905150536 | 55 | 230 | 0.0 | 0.0 | 0.00 | 0.09 | 0.09 | 89 | 1021.4 |
| 20260905150033 | 55 | 229 | 0.0 | 0.0 | 0.00 | 0.09 | 0.09 | 89 | 1021.5 |
| 20260905145527 | 55 | 230 | 0.0 | 0.0 | 0.00 | 0.09 | 0.09 | 89 | 1021.5 |
| 20260905145026 | 55 | 238 | 0.0 | 0.0 | 0.00 | 0.09 | 0.09 | 89 | 1021.3 |
| 20260905144522 | 55 | 258 | 1.0 | 1.0 | 0.00 | 0.09 | 0.09 | 89 | 1021.1 |
| 20260905144021 | 55 | 262 | 0.0 | 1.0 | 0.00 | 0.09 | 0.09 | 88 | 1021.2 |
| 20260905143520 | 55 | 206 | 0.0 | 0.0 | 0.00 | 0.09 | 0.09 | 90 | 1021.1 |
| 20260905143015 | 54 | 219 | 0.0 | 1.0 | 0.00 | 0.09 | 0.09 | 90 | 1020.8 |
| 20260905142514 | 54 | 206 | 0.0 | 0.0 | 0.07 | 0.09 | 0.09 | 91 | 1021.1 |
| 20260905142009 | 53 | 211 | 1.0 | 1.0 | 0.07 | 0.09 | 0.09 | 92 | 1021.3 |
| 20260905141503 | 53 | 215 | 0.0 | 0.0 | 0.00 | 0.08 | 0.08 | 92 | 1021.2 |
| 20260905141000 | 53 | 239 | 0.0 | 0.0 | 0.00 | 0.08 | 0.08 | 93 | 1020.9 |
| 20260905140455 | 53 | 237 | 0.0 | 0.0 | 0.00 | 0.08 | 0.08 | 93 | 1020.8 |
| 20260905135953 | 53 | 349 | 3.0 | 5.0 | 0.00 | 0.08 | 0.08 | 93 | 1020.4 |
| 20260905135449 | 53 | 12 | 3.0 | 5.0 | 0.00 | 0.08 | 0.08 | 93 | 1020.2 |
| 20260905134944 | 53 | 356 | 2.0 | 2.0 | 0.00 | 0.08 | 0.08 | 93 | 1020.2 |
| 20260905134444 | 53 | 359 | 4.0 | 5.0 | 0.00 | 0.08 | 0.08 | 93 | 1020.4 |
| 20260905133943 | 53 | 333 | 2.0 | 2.0 | 0.07 | 0.08 | 0.08 | 92 | 1020.6 |
| 20260905133438 | 52 | 249 | 0.0 | 0.0 | 0.07 | 0.08 | 0.08 | 92 | 1021.2 |
| 20260905132938 | 52 | 255 | 0.0 | 0.0 | 0.05 | 0.07 | 0.07 | 91 | 1021.3 |
| 20260905132433 | 52 | 260 | 0.0 | 0.0 | 0.12 | 0.07 | 0.07 | 91 | 1021.5 |
| 20260905131928 | 53 | 283 | 0.0 | 0.0 | 0.19 | 0.06 | 0.06 | 90 | 1021.4 |
| 20260905131424 | 53 | 141 | 0.0 | 1.0 | 0.24 | 0.05 | 0.05 | 90 | 1021.7 |
| 20260905130924 | 53 | 217 | 3.0 | 3.0 | 0.12 | 0.03 | 0.03 | 90 | 1021.5 |
| 20260905130418 | 53 | 72 | 0.0 | 1.0 | 0.00 | 0.01 | 0.01 | 90 | 1021.3 |
| 20260905125918 | 53 | 348 | 0.0 | 1.0 | 0.00 | 0.01 | 0.01 | 90 | 1021.1 |
| 20260905125413 | 53 | 278 | 1.0 | 2.0 | 0.00 | 0.01 | 0.01 | 89 | 1021.1 |
| 20260905124908 | 53 | 251 | 0.0 | 0.0 | 0.00 | 0.01 | 0.01 | 89 | 1020.8 |
| 20260905124405 | 53 | 265 | 0.0 | 1.0 | 0.00 | 0.01 | 0.01 | 88 | 1020.2 |
| 20260905123904 | 53 | 247 | 0.0 | 0.0 | 0.05 | 0.01 | 0.01 | 88 | 1020.1 |
| 20260905123401 | 53 | 254 | 0.0 | 0.0 | 0.05 | 0.01 | 0.01 | 88 | 1019.7 |
| 20260905122856 | 53 | 269 | 0.0 | 0.0 | 0.00 | 0.00 | 0.00 | 88 | 1019.7 |
| 20260905122355 | 53 | 270 | 0.0 | 0.0 | 0.00 | 0.00 | 0.00 | 88 | 1020.0 |
| 20260905121851 | 53 | 230 | 0.0 | 0.0 | 0.00 | 0.00 | 0.00 | 87 | 1020.6 |
| 20260905121347 | 53 | 229 | 0.0 | 0.0 | 0.00 | 0.00 | 0.00 | 86 | 1020.6 |
| 20260905120846 | 53 | 230 | 0.0 | 0.0 | 0.00 | 0.00 | 0.00 | 86 | 1020.3 |
| 20260905120340 | 54 | 234 | 0.0 | 0.0 | 0.00 | 0.00 | 0.00 | 85 | 1019.9 |
| 20260905115836 | 54 | 234 | 0.0 | 0.0 | 0.00 | 0.00 | 0.00 | 83 | 1019.9 |
| 20260905115334 | 54 | 253 | 0.0 | 1.0 | 0.00 | 0.00 | 0.00 | 81 | 1020.0 |
| 20260905114829 | 54 | 244 | 0.0 | 1.0 | 0.00 | 0.00 | 0.00 | 80 | 1020.6 |
| 20260905114328 | 54 | 236 | 0.0 | 0.0 | 0.00 | 0.00 | 0.00 | 79 | 1020.6 |